Weather reports worldwide

Advertisment
Rimini, Italy (16149): temperature & dewpoint: 10.08.2018 13:00:00 - 16.08.2018 13:00:00 (CEST)Rimini, Italy (16149): wind speed: 10.08.2018 13:00:00 - 16.08.2018 13:00:00 (CEST)Rimini, Italy (16149): wind direction: 10.08.2018 13:00:00 - 16.08.2018 13:00:00 (CEST)Rimini, Italy (16149): reduced air pressure: 10.08.2018 13:00:00 - 16.08.2018 13:00:00 (CEST)Rimini, Italy (16149): visibility: 10.08.2018 13:00:00 - 16.08.2018 13:00:00 (CEST)Rimini, Italy (16149): precipitation: 10.08.2018 13:00:00 - 16.08.2018 13:00:00 (CEST)
Date & Time tt [°C] td [°C] ff [km/h] ff [kn] dd ppp [hPa] vv [km] rr [mm]
16.08.2018 13:00:00 27,0 19,0 15 8 NNW - 10 -
16.08.2018 12:00:00 27,0 17,0 13 7 NNW - 10 -
16.08.2018 11:00:00 26,8 17,7 9 5 NW 1016,3 10 0,0
16.08.2018 10:00:00 25,0 18,0 16 9 W - 10 -
16.08.2018 09:00:00 24,0 17,0 21 11 W - 10 -
16.08.2018 08:00:00 22,9 16,6 13 7 W 1016,0 10 -
16.08.2018 07:00:00 21,0 16,0 11 6 WNW - 10 -
16.08.2018 06:00:00 21,0 16,0 15 8 WNW - 10 -
16.08.2018 05:00:00 25,5 16,9 16 9 NNE 1015,3 10 0,0
16.08.2018 04:00:00 22,0 16,0 13 7 W - 10 -
16.08.2018 03:00:00 23,0 16,0 8 4 NW - 10 -
16.08.2018 02:00:00 21,8 15,3 8 4 WNW 1015,6 10 -
16.08.2018 01:00:00 22,0 16,0 4 2 - - 10 -
16.08.2018 00:00:00 22,0 16,0 5 3 WSW - 10 -
15.08.2018 23:00:00 22,6 16,4 4 2 WSW 1015,8 10 0,0
15.08.2018 22:00:00 23,0 17,0 5 3 WSW - 10 -
15.08.2018 21:00:00 26,0 16,0 9 5 NNW - 10 -
15.08.2018 20:00:00 26,1 15,7 11 6 NNW 1014,8 10 -
15.08.2018 19:00:00 27,0 16,0 15 8 NNW - 10 -
15.08.2018 18:00:00 27,0 16,0 15 8 N - 10 -
15.08.2018 17:00:00 27,3 17,2 16 9 N 1014,9 10 0,0
15.08.2018 16:00:00 28,0 17,0 21 11 NNE - 10 -
15.08.2018 15:00:00 27,0 18,0 9 5 NNW - 10 -
15.08.2018 14:00:00 25,1 20,4 26 14 WNW 1015,2 10 -
15.08.2018 13:00:00 25,0 20,0 28 15 W - 10 -
15.08.2018 12:00:00 23,0 20,0 24 13 W - 10 -
15.08.2018 11:00:00 23,0 19,7 21 11 W 1015,0 10 0,0
15.08.2018 10:00:00 22,0 21,0 21 11 W - 8 -
15.08.2018 09:00:00 21,0 20,0 16 9 W - 8 -
15.08.2018 08:00:00 20,2 19,3 13 7 W 1014,1 8 -
15.08.2018 07:00:00 20,0 19,0 18 10 W - 8 -
15.08.2018 06:00:00 19,0 19,0 16 9 W - 6 -
15.08.2018 05:00:00 20,0 18,4 11 6 W 1013,5 10 0,0
15.08.2018 04:00:00 20,0 18,0 16 9 W - 10 -
15.08.2018 03:00:00 20,0 17,0 15 8 W - 10 -
15.08.2018 02:00:00 20,5 17,2 15 8 W 1013,7 10 -
15.08.2018 01:00:00 20,0 17,0 13 7 WSW - 10 -
15.08.2018 00:00:00 20,0 17,0 13 7 WSW - 10 -
14.08.2018 23:00:00 19,1 17,0 11 6 W 1013,5 10 0,0
14.08.2018 22:00:00 19,0 18,0 8 4 W - 10 -
14.08.2018 21:00:00 19,0 18,0 8 4 SW - 10 -
14.08.2018 20:00:00 19,3 17,4 9 5 W 1012,9 10 -
14.08.2018 19:00:00 22,0 16,0 39 21 WNW - 10 -
14.08.2018 18:00:00 27,0 19,0 9 5 ENE - 10 -
14.08.2018 17:00:00 27,2 19,3 13 7 ENE 1011,2 10 0,0
14.08.2018 16:00:00 28,0 19,0 15 8 NNE - 10 -
14.08.2018 15:00:00 28,0 19,0 9 5 NE - 10 -
14.08.2018 14:00:00 27,3 18,1 8 4 N 1011,7 10 -
14.08.2018 13:00:00 27,0 19,0 8 4 NNE - 10 -
14.08.2018 12:00:00 27,0 19,0 9 5 NNW - 10 -
14.08.2018 11:00:00 27,7 18,5 13 7 NNE 1011,3 10 0,0
14.08.2018 10:00:00 27,0 18,0 8 4 W - 10 -
14.08.2018 09:00:00 25,0 20,0 4 2 - - 10 -
14.08.2018 08:00:00 24,1 19,0 8 4 WSW 1011,2 10 -
14.08.2018 07:00:00 21,0 17,0 4 2 - - 10 -
14.08.2018 06:00:00 20,0 18,0 5 3 ESE - 10 -
14.08.2018 05:00:00 20,2 17,0 4 2 S 1010,5 10 0,0
14.08.2018 04:00:00 22,0 16,0 4 2 SW - 10 -
14.08.2018 03:00:00 22,0 16,0 5 3 S - 10 -
14.08.2018 02:00:00 24,1 15,9 4 2 - 1011,3 10 -
14.08.2018 01:00:00 24,0 17,0 9 5 S - 10 -
14.08.2018 00:00:00 24,0 16,0 5 3 S - 10 -
13.08.2018 23:00:00 25,9 15,8 8 4 S 1011,2 10 0,0
13.08.2018 22:00:00 27,0 15,0 11 6 SW - 10 -
13.08.2018 21:00:00 27,0 16,0 5 3 W - 10 -
13.08.2018 20:00:00 29,0 15,3 21 11 WSW 1010,0 10 -
13.08.2018 19:00:00 29,0 22,0 13 7 E - 10 -
13.08.2018 18:00:00 28,0 21,0 16 9 E - 10 -
13.08.2018 17:00:00 29,3 21,7 16 9 ENE 1011,0 10 0,0
13.08.2018 16:00:00 29,0 21,0 18 10 ENE - 10 -
13.08.2018 15:00:00 29,0 22,0 15 8 ENE - 10 -
13.08.2018 14:00:00 28,6 21,7 15 8 NE 1012,4 10 -
13.08.2018 13:00:00 - - - - - - - -
13.08.2018 12:00:00 28,0 20,0 15 8 NNE - 10 -
13.08.2018 11:00:00 27,5 20,6 9 5 NNE 1013,5 10 0,0
13.08.2018 10:00:00 27,0 20,0 8 4 NNE - 10 -
13.08.2018 09:00:00 26,0 20,0 4 2 - - 10 -
13.08.2018 08:00:00 23,3 19,3 5 3 SW 1013,3 10 -
13.08.2018 07:00:00 21,0 18,0 5 3 S - 10 -
13.08.2018 06:00:00 21,0 18,0 4 2 S - 10 -
13.08.2018 05:00:00 20,6 18,1 4 2 - 1013,2 10 0,0
13.08.2018 04:00:00 21,0 19,0 4 2 - - 10 -
13.08.2018 03:00:00 22,0 19,0 4 2 - - 10 -
13.08.2018 02:00:00 22,3 19,8 4 2 S 1014,2 10 -
13.08.2018 01:00:00 23,0 21,0 5 3 S - 10 -
13.08.2018 00:00:00 24,0 21,0 4 2 SW - 10 -
12.08.2018 23:00:00 23,8 21,6 4 2 - 1014,7 10 0,0
12.08.2018 22:00:00 25,0 22,0 4 2 S - 10 -
12.08.2018 21:00:00 26,0 22,0 0 0 N - 10 -
12.08.2018 20:00:00 26,9 22,2 5 3 ENE 1014,6 10 -
12.08.2018 19:00:00 28,0 22,0 9 5 ENE - 10 -
12.08.2018 18:00:00 - - - - - - - -
12.08.2018 17:00:00 28,8 22,3 13 7 NE 1015,5 10 0,0
12.08.2018 16:00:00 29,0 21,0 15 8 NNE - 10 -
12.08.2018 15:00:00 29,0 22,0 16 9 N - 10 -
12.08.2018 14:00:00 28,4 21,5 16 9 N 1016,9 10 -
12.08.2018 13:00:00 29,0 21,0 15 8 N - 10 -
12.08.2018 12:00:00 29,0 20,0 11 6 N - 10 -
12.08.2018 11:00:00 28,1 18,2 8 4 WNW 1017,5 10 0,0
12.08.2018 10:00:00 27,0 17,0 11 6 WNW - 10 -
12.08.2018 09:00:00 25,0 16,0 5 3 W - 10 -
12.08.2018 08:00:00 23,1 14,8 8 4 SSW 1017,2 10 -
12.08.2018 07:00:00 21,0 14,0 5 3 SSW - 10 -
12.08.2018 06:00:00 20,0 14,0 5 3 SSW - 10 -
12.08.2018 05:00:00 20,5 15,6 8 4 SW 1016,5 10 0,0
12.08.2018 04:00:00 20,0 16,0 8 4 SSW - 10 -
12.08.2018 03:00:00 21,0 17,0 2 1 - - 10 -
12.08.2018 02:00:00 22,5 16,9 4 2 - 1016,7 10 -
12.08.2018 01:00:00 23,0 18,0 5 3 SW - 10 -
12.08.2018 00:00:00 25,0 18,0 4 2 - - 10 -
11.08.2018 23:00:00 26,0 18,4 5 3 S 1016,8 10 0,0
11.08.2018 22:00:00 27,0 19,0 5 3 SSE - 10 -
11.08.2018 21:00:00 27,0 20,0 5 3 E - 10 -
11.08.2018 20:00:00 28,2 20,6 8 4 E 1015,6 10 -
11.08.2018 19:00:00 29,0 20,0 11 6 E - 10 -
11.08.2018 18:00:00 29,0 22,0 13 7 E - 10 -
11.08.2018 17:00:00 29,7 22,5 15 8 E 1016,1 10 0,0
11.08.2018 16:00:00 30,0 21,0 15 8 NE - 10 -
11.08.2018 15:00:00 30,0 21,0 15 8 NE - 10 -
11.08.2018 14:00:00 29,5 20,5 13 7 NE 1017,2 10 -
11.08.2018 13:00:00 30,0 20,0 13 7 N - 10 -
11.08.2018 12:00:00 29,0 18,0 13 7 N - 10 -
11.08.2018 11:00:00 28,9 17,7 13 7 N 1018,4 10 0,0
11.08.2018 10:00:00 30,0 16,0 11 6 NW - 10 -
11.08.2018 09:00:00 27,0 17,0 5 3 SSW - 10 -
11.08.2018 08:00:00 23,7 16,1 5 3 SSW 1018,0 10 -
11.08.2018 07:00:00 20,0 15,0 4 2 S - 10 -
11.08.2018 06:00:00 20,0 15,0 5 3 SW - 10 -
11.08.2018 05:00:00 20,0 15,9 5 3 S 1017,5 10 0,0
11.08.2018 04:00:00 21,0 17,0 8 4 SW - 10 -
11.08.2018 03:00:00 22,0 19,0 5 3 S - 10 -
11.08.2018 02:00:00 22,6 19,3 4 2 SSE 1018,1 10 -
11.08.2018 01:00:00 23,0 21,0 4 2 - - 10 -
11.08.2018 00:00:00 23,0 21,0 2 1 - - 10 -
10.08.2018 23:00:00 24,6 22,0 5 3 SSW 1018,1 10 0,0
10.08.2018 22:00:00 27,0 23,0 8 4 ESE - 10 -
10.08.2018 21:00:00 28,0 23,0 13 7 E - 10 -
10.08.2018 20:00:00 27,8 23,7 9 5 ENE 1017,5 10 -
10.08.2018 19:00:00 29,0 23,0 11 6 ENE - 10 -
10.08.2018 18:00:00 29,0 23,0 15 8 E - 10 -
10.08.2018 17:00:00 29,1 22,9 13 7 ENE 1017,9 10 0,0
10.08.2018 16:00:00 29,0 22,0 15 8 ENE - 10 -
10.08.2018 15:00:00 29,0 22,0 11 6 ENE - 10 -
10.08.2018 14:00:00 28,4 22,4 13 7 NE 1018,7 10 -
10.08.2018 13:00:00 28,0 22,0 11 6 NE - 10 -

tt = temperature
td = dewpoint
ff = wind speed
dd = wind direction
ppp = reduced air pressure
vv = visibility
rr = precipitation

Next stations